| time (UTC) | temp F | wind direction | speed knots | gust knots | rain 1hr in | rain 24hr in | rain mn in | humidity % | barometer mb |
| 20260505200515 | 50 | 0.0 | 1.7 | 0.00 | 0.00 | 0.00 | 90 | 1016.7 | |
| 20260505195515 | 50 | 0.0 | 0.0 | 0.00 | 0.00 | 0.00 | 90 | 1016.5 | |
| 20260505194515 | 50 | 0.0 | 1.7 | 0.00 | 0.00 | 0.00 | 89 | 1016.6 | |
| 20260505193606 | 50 | 0.0 | 1.7 | 0.00 | 0.00 | 0.00 | 89 | 1016.7 | |
| 20260505192516 | 50 | 0.0 | 2.6 | 0.00 | 0.00 | 0.00 | 89 | 1016.6 | |
| 20260505191515 | 50 | 0.0 | 1.7 | 0.00 | 0.00 | 0.00 | 89 | 1016.4 | |
| 20260505190515 | 50 | 270 | 0.9 | 2.6 | 0.00 | 0.00 | 0.00 | 89 | 1016.4 |
| 20260505185515 | 49 | 293 | 0.9 | 3.5 | 0.00 | 0.00 | 0.00 | 89 | 1016.4 |
| 20260505184515 | 49 | 0.0 | 1.7 | 0.00 | 0.00 | 0.00 | 89 | 1016.3 | |
| 20260505183515 | 49 | 270 | 0.9 | 2.6 | 0.00 | 0.00 | 0.00 | 89 | 1016.3 |
| 20260505182517 | 49 | 0.0 | 2.6 | 0.00 | 0.00 | 0.00 | 88 | 1016.4 | |
| 20260505181517 | 49 | 0.0 | 1.7 | 0.00 | 0.00 | 0.00 | 87 | 1016.3 | |
| 20260505180517 | 49 | 0.0 | 0.0 | 0.00 | 0.00 | 0.00 | 87 | 1016.2 | |
| 20260505175517 | 49 | 315 | 0.9 | 1.7 | 0.00 | 0.00 | 0.00 | 86 | 1016.1 |
| 20260505174517 | 49 | 315 | 0.9 | 3.5 | 0.00 | 0.00 | 0.00 | 86 | 1016.0 |
| 20260505173536 | 49 | 0.0 | 1.7 | 0.00 | 0.00 | 0.00 | 87 | 1015.9 | |
| 20260505172517 | 49 | 0.0 | 2.6 | 0.00 | 0.00 | 0.00 | 87 | 1015.8 | |
| 20260505171517 | 49 | 270 | 0.9 | 3.5 | 0.00 | 0.00 | 0.00 | 85 | 1015.8 |
| 20260505170517 | 49 | 293 | 0.9 | 3.5 | 0.00 | 0.00 | 0.00 | 85 | 1015.8 |
| 20260505165517 | 49 | 270 | 0.9 | 3.5 | 0.00 | 0.00 | 0.00 | 85 | 1015.8 |
| 20260505164517 | 49 | 293 | 0.9 | 3.5 | 0.00 | 0.00 | 0.00 | 86 | 1015.8 |
| 20260505163517 | 49 | 0.0 | 1.7 | 0.00 | 0.00 | 0.00 | 86 | 1015.6 | |
| 20260505162538 | 48 | 270 | 0.9 | 3.5 | 0.00 | 0.00 | 0.00 | 86 | 1015.5 |
| 20260505161517 | 48 | 248 | 1.7 | 4.3 | 0.00 | 0.00 | 0.00 | 88 | 1015.6 |
| 20260505160536 | 48 | 270 | 2.6 | 4.3 | 0.00 | 0.00 | 0.00 | 88 | 1015.6 |
| 20260505152516 | 46 | 270 | 1.7 | 5.2 | 0.00 | 0.00 | 0.00 | 91 | 1015.2 |
| 20260505151517 | 46 | 0.0 | 1.7 | 0.00 | 0.01 | 0.00 | 92 | 1015.1 | |
| 20260505150517 | 46 | 0.0 | 0.9 | 0.00 | 0.01 | 0.00 | 92 | 1015.1 | |
| 20260505140516 | 46 | 270 | 2.6 | 5.2 | 0.00 | 0.01 | 0.00 | 92 | 1014.8 |
| 20260505124017 | 45 | 0.0 | 0.0 | 0.00 | 0.01 | 0.00 | 91 | 1014.7 | |
| 20260505123016 | 45 | 0.0 | 0.0 | 0.00 | 0.01 | 0.00 | 90 | 1014.7 | |
| 20260505122017 | 45 | 0.0 | 0.0 | 0.00 | 0.01 | 0.00 | 90 | 1014.6 | |
| 20260505121016 | 45 | 0.0 | 0.0 | 0.00 | 0.01 | 0.00 | 89 | 1014.7 | |
| 20260505120016 | 45 | 0.0 | 1.7 | 0.00 | 0.01 | 0.00 | 89 | 1014.8 | |
| 20260505115037 | 45 | 0.0 | 0.9 | 0.00 | 0.01 | 0.00 | 89 | 1014.9 | |
| 20260505114017 | 45 | 0.0 | 0.9 | 0.00 | 0.01 | 0.00 | 89 | 1014.9 | |
| 20260505113036 | 45 | 270 | 0.9 | 3.5 | 0.00 | 0.01 | 0.00 | 89 | 1014.9 |
| 20260505112056 | 44 | 293 | 0.9 | 3.5 | 0.00 | 0.01 | 0.00 | 89 | 1014.8 |
| 20260505111016 | 44 | 248 | 0.9 | 2.6 | 0.00 | 0.01 | 0.00 | 90 | 1014.7 |
| 20260505102056 | 45 | 270 | 0.9 | 2.6 | 0.00 | 0.01 | 0.00 | 93 | 1014.8 |
| 20260505101016 | 45 | 0.0 | 0.9 | 0.00 | 0.01 | 0.00 | 93 | 1015.0 | |
| 20260505100036 | 45 | 0.0 | 1.7 | 0.00 | 0.01 | 0.00 | 93 | 1015.1 | |
| 20260505095057 | 45 | 0.0 | 0.0 | 0.00 | 0.01 | 0.00 | 94 | 1015.2 | |
| 20260505094016 | 45 | 0.0 | 0.0 | 0.00 | 0.01 | 0.00 | 94 | 1015.3 | |
| 20260505093016 | 45 | 0.0 | 0.0 | 0.00 | 0.01 | 0.00 | 93 | 1015.0 | |
| 20260505092017 | 45 | 0.0 | 0.0 | 0.00 | 0.01 | 0.00 | 93 | 1014.8 | |
| 20260505091036 | 45 | 0.0 | 0.0 | 0.00 | 0.01 | 0.00 | 93 | 1015.1 | |
| 20260505090016 | 45 | 0.0 | 0.0 | 0.00 | 0.01 | 0.00 | 93 | 1015.3 | |
| 20260505085016 | 45 | 270 | 0.9 | 3.5 | 0.00 | 0.01 | 0.00 | 93 | 1015.2 |
| 20260505084536 | 45 | 0.0 | 1.7 | 0.00 | 0.01 | 0.00 | 93 | 1015.4 | |
| 20260505083517 | 45 | 0.0 | 0.0 | 0.00 | 0.01 | 0.00 | 92 | 1015.5 | |
| 20260505082516 | 46 | 0.0 | 1.7 | 0.00 | 0.01 | 0.00 | 92 | 1015.4 | |
| 20260505081516 | 46 | 0.0 | 0.9 | 0.00 | 0.01 | 0.00 | 92 | 1015.7 | |
| 20260505080516 | 46 | 0.0 | 0.0 | 0.00 | 0.01 | 0.00 | 92 | 1015.8 | |
| 20260505075516 | 46 | 0.0 | 1.7 | 0.00 | 0.01 | 0.00 | 92 | 1015.8 | |
| 20260505074537 | 46 | 0.0 | 0.0 | 0.00 | 0.01 | 0.00 | 92 | 1015.8 | |
| 20260505073516 | 46 | 0.0 | 0.0 | 0.00 | 0.01 | 0.00 | 92 | 1015.7 | |
| 20260505072516 | 45 | 0.0 | 0.0 | 0.00 | 0.01 | 0.00 | 92 | 1015.5 | |
| 20260505071516 | 45 | 0.0 | 0.0 | 0.00 | 0.01 | 0.00 | 91 | 1015.5 | |
| 20260505070516 | 45 | 0.0 | 0.0 | 0.00 | 0.01 | 0.00 | 91 | 1015.3 | |
| 20260505065557 | 46 | 0.0 | 0.0 | 0.00 | 0.01 | 0.01 | 91 | 1015.3 | |
| 20260505064517 | 46 | 0.0 | 0.0 | 0.00 | 0.01 | 0.01 | 91 | 1015.4 | |
| 20260505063516 | 45 | 0.0 | 0.0 | 0.00 | 0.01 | 0.01 | 91 | 1015.3 | |
| 20260505062516 | 45 | 0.0 | 0.0 | 0.00 | 0.01 | 0.01 | 91 | 1015.1 | |
| 20260505061518 | 46 | 0.0 | 0.0 | 0.00 | 0.01 | 0.01 | 91 | 1015.2 | |
| 20260505060517 | 46 | 0.0 | 0.0 | 0.00 | 0.01 | 0.01 | 91 | 1015.1 | |
| 20260505055517 | 46 | 0.0 | 0.0 | 0.00 | 0.01 | 0.01 | 92 | 1015.4 | |
| 20260505054517 | 46 | 0.0 | 0.0 | 0.00 | 0.01 | 0.01 | 91 | 1015.4 | |
| 20260505053516 | 46 | 0.0 | 0.0 | 0.00 | 0.01 | 0.01 | 91 | 1015.5 | |
| 20260505052516 | 47 | 0.0 | 1.7 | 0.00 | 0.01 | 0.01 | 90 | 1015.7 | |
| 20260505051516 | 47 | 0.0 | 1.7 | 0.00 | 0.01 | 0.01 | 89 | 1015.8 | |
| 20260505050516 | 47 | 0.0 | 0.0 | 0.00 | 0.01 | 0.01 | 88 | 1015.9 | |
| 20260505041515 | 48 | 0.0 | 0.9 | 0.00 | 0.01 | 0.01 | 83 | 1015.4 | |
| 20260505040536 | 48 | 0.0 | 2.6 | 0.00 | 0.01 | 0.01 | 83 | 1015.3 | |
| 20260505035517 | 48 | 0.0 | 0.0 | 0.00 | 0.01 | 0.01 | 84 | 1015.2 | |
| 20260505034536 | 48 | 0.0 | 0.9 | 0.00 | 0.01 | 0.01 | 86 | 1015.0 | |
| 20260505033517 | 48 | 248 | 0.9 | 2.6 | 0.00 | 0.01 | 0.01 | 87 | 1014.8 |
| 20260505032517 | 49 | 0.0 | 0.0 | 0.00 | 0.01 | 0.01 | 89 | 1014.5 | |
| 20260505031516 | 49 | 0.0 | 2.6 | 0.00 | 0.01 | 0.01 | 88 | 1014.6 | |
| 20260505030516 | 49 | 0.0 | 0.0 | 0.00 | 0.01 | 0.01 | 88 | 1014.8 | |
| 20260505025516 | 49 | 0.0 | 0.9 | 0.00 | 0.01 | 0.01 | 88 | 1014.6 | |
| 20260505024516 | 49 | 248 | 0.9 | 3.5 | 0.00 | 0.01 | 0.01 | 88 | 1014.5 |
| 20260505023516 | 49 | 0.0 | 1.7 | 0.00 | 0.01 | 0.01 | 88 | 1014.6 | |
| 20260505022516 | 49 | 0.0 | 1.7 | 0.00 | 0.01 | 0.01 | 87 | 1014.5 | |
| 20260505021516 | 50 | 0.0 | 1.7 | 0.00 | 0.01 | 0.01 | 86 | 1014.7 | |
| 20260505020516 | 50 | 68 | 0.9 | 3.5 | 0.00 | 0.01 | 0.01 | 84 | 1014.4 |
| 20260505015516 | 51 | 0.0 | 1.7 | 0.00 | 0.01 | 0.01 | 83 | 1014.7 | |
| 20260505014516 | 52 | 0.0 | 0.0 | 0.00 | 0.01 | 0.01 | 82 | 1014.8 | |
| 20260505013516 | 52 | 0.0 | 0.0 | 0.00 | 0.01 | 0.01 | 81 | 1014.8 | |
| 20260505012516 | 52 | 0.0 | 0.9 | 0.00 | 0.01 | 0.01 | 80 | 1014.9 | |
| 20260505011517 | 52 | 0.0 | 2.6 | 0.00 | 0.01 | 0.01 | 79 | 1014.9 | |
| 20260505010516 | 53 | 0.0 | 2.6 | 0.00 | 0.01 | 0.01 | 79 | 1015.0 | |
| 20260505005516 | 53 | 0.0 | 1.7 | 0.00 | 0.01 | 0.01 | 79 | 1015.0 | |
| 20260505004536 | 54 | 0.0 | 0.0 | 0.00 | 0.01 | 0.01 | 78 | 1015.3 | |
| 20260505003516 | 54 | 0.0 | 1.7 | 0.00 | 0.01 | 0.01 | 78 | 1015.3 | |
| 20260505002516 | 54 | 315 | 0.9 | 2.6 | 0.00 | 0.01 | 0.01 | 78 | 1015.3 |
| 20260505001556 | 53 | 248 | 2.6 | 5.2 | 0.00 | 0.01 | 0.01 | 78 | 1015.0 |
| 20260505000536 | 53 | 315 | 0.9 | 5.2 | 0.00 | 0.01 | 0.01 | 81 | 1015.2 |
| 20260504235516 | 53 | 0.0 | 0.9 | 0.00 | 0.01 | 0.01 | 80 | 1015.2 | |
| 20260504234516 | 53 | 0 | 0.9 | 2.6 | 0.00 | 0.01 | 0.01 | 79 | 1015.2 |
| 20260504233516 | 54 | 293 | 0.9 | 3.5 | 0.00 | 0.01 | 0.01 | 79 | 1015.1 |
| 20260504232516 | 53 | 270 | 0.9 | 3.5 | 0.00 | 0.01 | 0.01 | 79 | 1015.1 |
| 20260504231516 | 53 | 248 | 1.7 | 5.2 | 0.00 | 0.01 | 0.01 | 79 | 1015.2 |
| 20260504230516 | 53 | 180 | 0.9 | 2.6 | 0.00 | 0.01 | 0.01 | 79 | 1015.3 |
| 20260504225516 | 53 | 180 | 0.9 | 5.2 | 0.00 | 0.01 | 0.01 | 79 | 1015.3 |
| 20260504224536 | 53 | 180 | 1.7 | 5.2 | 0.00 | 0.01 | 0.01 | 77 | 1015.2 |
| 20260504223516 | 54 | 0.0 | 0.9 | 0.00 | 0.01 | 0.01 | 77 | 1015.3 | |
| 20260504222521 | 54 | 203 | 0.9 | 4.3 | 0.00 | 0.01 | 0.01 | 77 | 1015.4 |
| 20260504221536 | 54 | 203 | 2.6 | 6.1 | 0.00 | 0.01 | 0.01 | 75 | 1015.3 |
| 20260504220536 | 55 | 203 | 0.9 | 3.5 | 0.00 | 0.01 | 0.01 | 73 | 1015.5 |
| 20260504215536 | 55 | 0.0 | 3.5 | 0.00 | 0.01 | 0.01 | 73 | 1015.7 | |
| 20260504214518 | 55 | 270 | 1.7 | 6.1 | 0.00 | 0.01 | 0.01 | 74 | 1015.7 |
| 20260504213516 | 55 | 270 | 1.7 | 7.0 | 0.00 | 0.01 | 0.01 | 77 | 1015.8 |
| 20260504212516 | 53 | 248 | 4.3 | 8.7 | 0.00 | 0.01 | 0.01 | 81 | 1015.7 |
| 20260504211516 | 51 | 248 | 5.2 | 7.8 | 0.00 | 0.01 | 0.01 | 84 | 1015.7 |
| 20260504210516 | 51 | 270 | 2.6 | 6.1 | 0.00 | 0.01 | 0.01 | 84 | 1015.8 |
| 20260504205516 | 51 | 293 | 0.9 | 3.5 | 0.00 | 0.01 | 0.01 | 84 | 1015.8 |
| 20260504204516 | 51 | 293 | 0.9 | 4.3 | 0.00 | 0.01 | 0.01 | 83 | 1015.8 |
| 20260504203516 | 52 | 0.0 | 1.7 | 0.00 | 0.01 | 0.01 | 83 | 1015.8 | |
| 20260504202515 | 52 | 293 | 0.9 | 4.3 | 0.00 | 0.01 | 0.01 | 81 | 1015.6 |
| 20260504201515 | 53 | 248 | 0.9 | 1.7 | 0.00 | 0.01 | 0.01 | 78 | 1015.9 |